User: anonymous   Login
Location: Newark
(30.1000°N, 109.4667°E)
Time: 05:25:57
(UTC+00:00)
Language:

S-56A Canister/Altair - Orbit

View from above orbital plane
View from above orbital plane
View from above satellite
View from above satellite

Ground track
Ground track

The orbit data is extracted from the following two-line orbital elements,

1    82U 61004B   20054.60515936 -.00000013 +00000-0 +13914-4 0  9994
2    82 038.8621 263.6393 1174963 249.3046 097.7964 12.26060854793714
Epoch (UTC): 23 February 2020 14:31:25
Eccentricity: 0.1174963
inclination: 38.8621°
perigee height: 633 km
apogee height: 2499 km
right ascension of ascending node: 263.6393°
argument of perigee: 249.3046°
revolutions per day: 12.26060854
mean anomaly at epoch: 97.7964°
orbit number at epoch: 79371

The dashed part of the orbit path shows where the satellite is in the earth's shadow,  

DLR